Tracking 25703 objects as of 2-Jul-2022
HD Live streaming from Space Station
objects crossing your sky now

SBS 6

Track SBS 6 now!
SBS 6 is classified as:


NORAD ID: 20872
Int'l Code: 1990-091A
Perigee: 36,109.1 km
Apogee: 36,203.6 km
Inclination: 10.5 °
Period: 1,454.7 minutes
Semi major axis: 42527 km
RCS: 24.6021 m2 (large)
Launch date: October 12, 1990
Source: United States (US)
Launch site: FRENCH GUIANA (FRGUI)
aabbcc
Your satellite tracking list
Your tracking list is empty




NASA's NSSDC Master Catalog

Two Line Element Set (TLE):
1 20872U 90091A   22182.33504206 -.00000180  00000-0  00000-0 0  9996
2 20872  10.4704  38.5455 0011111  75.7573  40.3701  0.98992037 31776
Source of the keplerian elements: AFSPC